7L2IWN-13 Weather Reports


Display with metric or nautical units.
time (UTC)temp
F
wind
direction
speed
MPH
gust
MPH
rain 1hr
in
rain 24hr
in
rain mn
in
humidity
%
barometer
mb
20260901160003 72 236 1.0 2.0 0.00 0.02 0.00 99 1016.2
20260901154803 72 251 1.0 2.0 0.00 0.02 0.00 99 1016.0
20260901153603 72 211 1.0 1.0 0.00 0.02 0.00 99 1016.2
20260901152401 72 252 0.0 1.0 0.00 0.02 0.00 99 1016.2
20260901151203 72 246 0.0 1.0 0.00 0.02 0.00 99 1016.3
20260901150003 72 245 0.0 1.0 0.00 0.02 0.02 99 1016.4
20260901144803 72 245 0.0 1.0 0.00 0.02 0.02 99 1016.5
20260901143602 72 244 1.0 1.0 0.00 0.02 0.02 99 1016.6
20260901142403 72 245 1.0 2.0 0.00 0.02 0.02 99 1016.4
20260901141201 72 244 1.0 1.0 0.00 0.02 0.02 99 1016.6
20260901140002 72 242 0.0 1.0 0.00 0.02 0.02 99 1016.6
20260901134802 72 217 1.0 2.0 0.00 0.02 0.02 99 1016.5
20260901133602 72 232 0.0 2.0 0.00 0.02 0.02 99 1016.7
20260901132403 72 219 1.0 2.0 0.00 0.02 0.02 99 1016.7
20260901131203 72 240 1.0 2.0 0.00 0.02 0.02 99 1016.6
20260901130004 72 240 2.0 2.0 0.00 0.02 0.02 99 1016.5
20260901124803 72 203 1.0 2.0 0.00 0.02 0.02 99 1016.7
20260901123602 72 236 1.0 2.0 0.00 0.02 0.02 99 1016.5
20260901122404 72 244 2.0 2.0 0.00 0.02 0.02 99 1016.9
20260901121202 72 272 2.0 3.0 0.00 0.02 0.02 99 1016.7
20260901120002 72 236 1.0 1.0 0.00 0.02 0.02 99 1016.9
20260901114802 72 237 2.0 2.0 0.00 0.02 0.02 99 1016.8
20260901113603 73 232 2.0 2.0 0.00 0.02 0.02 99 1016.9
20260901112402 73 216 1.0 2.0 0.00 0.02 0.02 99 1017.1
20260901111203 73 239 1.0 1.0 0.00 0.02 0.02 99 1016.9
20260901110004 73 233 2.0 3.0 0.00 0.02 0.02 99 1016.8
20260901104803 73 240 2.0 5.0 0.00 0.02 0.02 99 1016.8
20260901103602 73 254 1.0 3.0 0.00 0.02 0.02 99 1016.5
20260901102403 73 285 2.0 3.0 0.00 0.02 0.02 99 1016.3
20260901101204 73 206 1.0 2.0 0.00 0.02 0.02 99 1016.1
20260901100003 73 216 2.0 3.0 0.00 0.02 0.02 99 1016.2
20260901094803 73 217 1.0 2.0 0.00 0.02 0.02 99 1016.0
20260901093603 73 224 2.0 3.0 0.00 0.02 0.02 99 1016.1
20260901092404 73 208 1.0 2.0 0.00 0.02 0.02 99 1015.9
20260901091203 73 225 1.0 2.0 0.00 0.02 0.02 99 1015.8
20260901090004 73 229 2.0 3.0 0.00 0.02 0.02 99 1015.7
20260901084802 74 231 1.0 2.0 0.00 0.02 0.02 99 1016.0
20260901083603 74 214 1.0 2.0 0.00 0.02 0.02 99 1015.6
20260901082404 74 206 2.0 3.0 0.00 0.02 0.02 99 1015.7
20260901081203 74 210 1.0 2.0 0.00 0.02 0.02 99 1015.8
20260901080005 74 212 2.0 3.0 0.00 0.02 0.02 99 1015.9
20260901074803 74 234 2.0 2.0 0.00 0.02 0.02 99 1015.8
20260901073602 74 255 0.0 1.0 0.00 0.02 0.02 99 1015.7
20260901072402 74 125 0.0 0.0 0.00 0.02 0.02 99 1015.8
20260901071203 74 228 1.0 2.0 0.00 0.02 0.02 99 1015.9
20260901070004 74 159 1.0 2.0 0.00 0.02 0.02 99 1015.6
20260901064802 73 246 0.0 0.0 0.00 0.02 0.02 99 1015.9
20260901063602 73 230 1.0 2.0 0.00 0.02 0.02 99 1015.8
20260901062404 73 237 1.0 2.0 0.00 0.02 0.02 99 1015.8
20260901061203 74 204 2.0 5.0 0.00 0.02 0.02 99 1015.8
20260901060002 74 150 2.0 2.0 0.00 0.02 0.02 99 1016.1
20260901054803 74 199 2.0 3.0 0.00 0.02 0.02 99 1016.0
20260901053602 74 190 1.0 3.0 0.00 0.02 0.02 99 1015.9
20260901052404 74 187 3.0 6.0 0.00 0.02 0.02 98 1016.0
20260901051203 75 206 2.0 3.0 0.00 0.02 0.02 96 1015.9
20260901050002 76 91 0.0 0.0 0.00 0.02 0.02 93 1016.1
20260901044803 76 90 1.0 1.0 0.00 0.02 0.02 93 1015.9
20260901043603 77 91 0.0 1.0 0.00 0.02 0.02 91 1016.0
20260901042403 77 90 1.0 2.0 0.00 0.02 0.02 91 1015.8
20260901041203 76 92 0.0 1.0 0.00 0.02 0.02 92 1015.6
20260901040003 78 120 1.0 2.0 0.00 0.02 0.02 90 1016.0
20260901034802 77 121 1.0 2.0 0.00 0.02 0.02 90 1016.0
20260901033603 78 132 0.0 1.0 0.00 0.02 0.02 90 1015.9
20260901032403 76 208 0.0 0.0 0.00 0.02 0.02 91 1016.2
20260901031204 75 244 0.0 1.0 0.00 0.02 0.02 92 1016.3
20260901030002 75 160 1.0 2.0 0.00 0.02 0.02 94 1016.3
20260901024803 75 201 2.0 3.0 0.00 0.02 0.02 94 1016.5
20260901023602 74 215 2.0 3.0 0.00 0.02 0.02 95 1016.2
20260901022402 74 200 1.0 3.0 0.00 0.02 0.02 94 1016.5
20260901021202 74 138 1.0 2.0 0.00 0.02 0.02 94 1016.6
20260901020003 74 147 1.0 2.0 0.00 0.02 0.02 95 1016.4
20260901014803 74 110 1.0 2.0 0.00 0.02 0.02 94 1016.7
20260901013602 76 320 0.0 1.0 0.00 0.02 0.02 91 1016.8
20260901012402 76 322 0.0 0.0 0.00 0.02 0.02 92 1017.1
20260901011202 75 292 0.0 0.0 0.00 0.02 0.02 93 1016.9
20260901010003 75 258 0.0 2.0 0.00 0.02 0.02 94 1016.9
20260901004802 74 13 0.0 2.0 0.00 0.02 0.02 95 1017.0
20260901003602 75 276 1.0 2.0 0.00 0.02 0.02 94 1017.0
20260901002403 75 342 0.0 1.0 0.00 0.02 0.02 94 1017.0
20260901001203 74 340 0.0 0.0 0.00 0.02 0.02 95 1017.0
20260901000003 73 336 0.0 0.0 0.00 0.02 0.02 98 1017.0
20260831234805 72 336 0.0 0.0 0.00 0.02 0.02 99 1016.9
20260831233603 71 341 1.0 2.0 0.00 0.02 0.02 99 1016.8
20260831232404 71 351 1.0 3.0 0.00 0.02 0.02 99 1016.9
20260831231204 71 311 1.0 3.0 0.00 0.02 0.02 99 1017.1
20260831230004 71 310 0.0 1.0 0.00 0.02 0.02 99 1017.0
20260831224804 70 310 0.0 0.0 0.00 0.02 0.02 99 1016.9
20260831223603 70 310 0.0 1.0 0.00 0.02 0.02 99 1016.7
20260831222403 69 310 0.0 0.0 0.00 0.02 0.02 99 1017.1
20260831221203 69 310 1.0 1.0 0.00 0.02 0.02 99 1017.1
20260831220003 69 310 0.0 1.0 0.01 0.02 0.02 99 1017.2
20260831214802 69 310 0.0 0.0 0.01 0.02 0.02 99 1016.8
20260831213604 69 310 0.0 0.0 0.01 0.02 0.02 99 1017.0
20260831212403 69 310 0.0 0.0 0.01 0.02 0.02 99 1017.1
20260831211203 69 310 0.0 0.0 0.02 0.02 0.02 99 1016.9
20260831210004 69 310 0.0 0.0 0.01 0.01 0.01 99 1016.9
20260831204803 69 310 0.0 0.0 0.01 0.01 0.01 99 1016.6
20260831203603 69 310 1.0 3.0 0.01 0.01 0.01 99 1016.5
20260831202402 69 297 2.0 2.0 0.01 0.01 0.01 99 1016.5
20260831201202 69 288 1.0 2.0 0.00 0.00 0.00 99 1016.2
20260831200002 69 270 0.0 0.0 0.00 0.00 0.00 99 1016.5
20260831194802 69 270 0.0 0.0 0.00 0.00 0.00 99 1016.5
20260831193603 69 270 0.0 0.0 0.00 0.00 0.00 99 1016.8
20260831192402 69 258 0.0 0.0 0.00 0.00 0.00 99 1016.4
20260831191202 70 258 1.0 1.0 0.00 0.00 0.00 99 1016.5
20260831190004 70 259 0.0 0.0 0.00 0.00 0.00 99 1016.5
20260831184802 70 259 0.0 0.0 0.00 0.00 0.00 99 1016.5
20260831183601 70 259 0.0 0.0 0.00 0.00 0.00 99 1016.8
20260831182403 70 259 0.0 0.0 0.00 0.00 0.00 99 1016.4
20260831181202 70 260 0.0 1.0 0.00 0.00 0.00 99 1016.8
20260831180002 70 257 0.0 1.0 0.00 0.00 0.00 99 1016.7
20260831174803 70 272 0.0 0.0 0.00 0.00 0.00 99 1016.6
20260831173603 70 252 0.0 1.0 0.00 0.00 0.00 99 1016.7
20260831172402 70 253 1.0 2.0 0.00 0.00 0.00 99 1016.5
20260831171202 70 279 1.0 2.0 0.00 0.00 0.00 99 1016.6
20260831170002 71 279 1.0 1.0 0.00 0.00 0.00 99 1016.2
20260831164803 71 278 0.0 0.0 0.00 0.00 0.00 99 1016.3
20260831163603 71 279 0.0 0.0 0.00 0.00 0.00 99 1016.6
20260831162402 71 279 0.0 0.0 0.00 0.00 0.00 99 1016.6
20260831161202 70 274 2.0 2.0 0.00 0.00 0.00 99 1016.6